DECAYED

STARLINK-2393, 47812 (Decayed)

Orbit data source: Space-Track

STARLINK-2393, 47812 was a payload satellite owned by SpaceX/Seattle (US) in LEO that was launched on Thu, 11 Mar 2021 UTC via an FALCON 9 launch vehicle from the Air Force Eastern Test Range (AFETR). Payload-class satellites include a variety of spacecraft equipped with specific instruments for various scientific and technological missions. These include communications satellites like Starlink; space stations such as the ISS; scientific satellites like the Hubble; Earth observation satellites from companies like Planet Labs, Umbra, and HawkEye 360; GPS; miniature CubeSats for education and research; and military/defense satellites.

Not visible in the next 10 days
Identifier
47812, 2021-018AB
Orbit
Decayed
Country
Flag of USUS
Related business
Manufacturer
SpaceX/Seattle
Mission
Decayed Commercial Communications
Bus & Motor
STARLINK, Unknown motor
Mass
260 kg wet, ~248 kg dry
Launch date (UTC)
2021-03-11 (5 years ago)
Launch vehicle
FALCON 9
Launch site
Air Force Eastern Test Range (AFETR)
Object type
Payload
Rocket body
Debris
Shape & HBR
Box + 1 Pan, 10.1 m
Radar Cross Section
13.562 m², Large (>1 m²)

Expand to show TLE details & history
Last TLE update: 6 months ago

TLE from 6 months ago
0 STARLINK-2393
1 47812U 21018AB  26004.56573743  .11823715  12464-4  51813-3 0  9996
2 47812  53.0285 148.3495 0003990 276.0147  84.0446 16.43413884267350
Epoch: 2026-01-04T13:34Z
TLE epoch observation values (Epoch: 2026-01-04T13:34:39.713Z)
Latitude
-0.00005°
Longitude
-159.49142°
Altitude
157.396 km
Speed
7.813 km/s
True Right ascension
09h 53m 23s
True Declination
0° 00' 00"
Sunlit
Object was in full shadow at epoch
Visualization orbit readout
Latitude
Unknown
Longitude
Unknown
Altitude
Unknown
Speed
Unknown
Apparent Right ascension
Unknown
Apparent Declination
Unknown
Sunlit
N/A
Visualization observer readout
Local Sidereal Time
21:43:25
Azimuth
Unknown
Elevation
Unknown
Doppler factor
Unknown
Orbital elements
Apogee altitude
159.635 km
Perigee altitude
154.42 km
Semi-major axis
6,535.165 km
Eccentricity
0.0004
Inclination
53.0285°
RAAN
148.3495°
Arg. of periapsis
276.0147°
True anomaly
84.09008°
Mean anomaly
84.0446°
Eccentric anomaly
84.06734°
Mean motion
4.10826 °/min
Orbital period
87.63 mins
BSTAR
0.00051813
Loading maneuver chart data...
Computing Atmospheric mass density...

Documentation

Showing up to 5 results
|